Location: Unspecified
(48.7670°N, 0.0000°E)
Time: 10:48:29
(UTC+00:00)

Altair - Pass Details

Date: 29 June 2019
Orbit: 1501 x 1683 km, 47.2° (Epoch: 18 July)

Event Time Altitude Azimuth Distance (km) Brightness Sun altitude
Rises 00:11:26 0° 289° (WNW) 4,804 10.3 -18.0°
Reaches altitude 10° 00:14:43 10° 283° (WNW) 3,841 9.7 -17.9°
Maximum altitude 00:23:40 42° 218° (SW) 2,226 7.9 -17.8°
Enters shadow 00:30:26 19° 159° (SSE) 3,275 8.7 -17.7°
Drops below altitude 10° 00:32:51 10° 152° (SSE) 3,929 - -17.7°
Sets 00:36:15 0° 146° (SE) 4,922 - -17.6°
